This is the latest recevied weather packets stored in our database for station/object WB6ANP. If no packets are shown the sender has not sent any weather packets the latest 10 day(s).
| Time | Temp. | Humidity | Pressure | Rain* | Wind** | Luminosity | Snow |
|---|---|---|---|---|---|---|---|
| 1777826591 | 23.89° C | 44% | 1021.3 hPa | 0 mm | - | 867 W/m² | - |
| 1777826287 | 23.89° C | 46% | 1021.4 hPa | 0 mm | - | 859 W/m² | - |
| 1777825985 | 23.33° C | 46% | 1021.4 hPa | 0 mm | - | 848 W/m² | - |
| 1777825681 | 23.33° C | 48% | 1021.5 hPa | 0 mm | - | 837 W/m² | - |
| 1777825380 | 22.78° C | 49% | 1021.5 hPa | 0 mm | - | 827 W/m² | - |
| 1777825076 | 22.78° C | 48% | 1021.7 hPa | 0 mm | - | 817 W/m² | - |
| 1777824772 | 22.78° C | 50% | 1021.4 hPa | 0 mm | - | 805 W/m² | - |
| 1777824469 | 22.78° C | 49% | 1021.6 hPa | 0 mm | - | 794 W/m² | - |
| 1777824165 | 22.22° C | 50% | 1021.5 hPa | 0 mm | - | 781 W/m² | - |
| 1777823861 | 21.67° C | 50% | 1021.8 hPa | 0 mm | - | 769 W/m² | - |
| 1777823559 | 21.67° C | 48% | 1021.6 hPa | 0 mm | - | 757 W/m² | - |
| 1777823256 | 21.67° C | 52% | 1021.5 hPa | 0 mm | - | 744 W/m² | - |
| 1777822953 | 21.67° C | 50% | 1021.5 hPa | 0 mm | - | 730 W/m² | - |
| 1777822651 | 21.11° C | 53% | 1021.6 hPa | 0 mm | - | 501 W/m² | - |
| 1777822349 | 21.11° C | 53% | 1021.6 hPa | 0 mm | - | 700 W/m² | - |
| 1777822046 | 21.11° C | 54% | 1021.6 hPa | 0 mm | - | 686 W/m² | - |
| 1777821744 | 20.56° C | 53% | 1021.6 hPa | 0 mm | - | 672 W/m² | - |
| 1777821441 | 20.56° C | 53% | 1021.6 hPa | 0 mm | - | 654 W/m² | - |
| 1777821138 | 20.56° C | 53% | 1021.4 hPa | 0 mm | - | 638 W/m² | - |
| 1777820835 | 20° C | 55% | 1021.8 hPa | 0 mm | - | 621 W/m² | - |
| 1777820531 | 20.56° C | 55% | 1021.6 hPa | 0 mm | - | 604 W/m² | - |
| 1777820228 | 20° C | 54% | 1021.6 hPa | 0 mm | - | 588 W/m² | - |
| 1777819925 | 20° C | 56% | 1021.7 hPa | 0 mm | - | 570 W/m² | - |
| 1777819623 | 19.44° C | 52% | 1021.6 hPa | 0 mm | - | 552 W/m² | - |
| 1777819321 | 19.44° C | 52% | 1021.4 hPa | 0 mm | - | 535 W/m² | - |
* Rain latest hour (hover to see other rain measurements)
** Current wind speed in m/s (hover to see current wind gust speed)